KB9BK Weather Reports


Display with metric or nautical units.
time (UTC)temp
F
wind
direction
speed
MPH
gust
MPH
rain 1hr
in
rain 24hr
in
rain mn
in
humidity
%
barometer
mb
20260503192541 63 147 9.0 20.0 0.01 0.02 0.02 50 1006.3
20260503191540 62 202 9.0 19.0 0.00 0.02 0.02 49 1006.4
20260503190541 62 237 9.0 19.0 0.00 0.02 0.02 48 1006.6
20260503190028 62 214 8.0 16.0 0.00 0.02 0.02 47 1006.5
20260503185016 62 32 8.0 17.0 0.00 0.02 0.02 51 1006.8
20260503183532 62 313 7.0 16.0 0.00 0.02 0.02 52 1006.8
20260503182546 60 185 8.0 15.0 0.00 0.02 0.02 53 1007.0
20260503181533 59 279 7.0 13.0 0.00 0.02 0.02 58 1007.3
20260503180533 59 257 6.0 13.0 0.00 0.02 0.02 58 1007.3
20260503175533 58 227 7.0 13.0 0.00 0.02 0.02 60 1007.8
20260503174533 57 229 8.0 18.0 0.00 0.02 0.02 61 1007.8
20260503173533 57 240 8.0 15.0 0.00 0.02 0.02 60 1007.9
20260503172531 56 231 8.0 18.0 0.00 0.02 0.02 61 1008.3
20260503171527 55 194 7.0 14.0 0.00 0.02 0.02 64 1008.4
20260503171013 54 197 6.0 11.0 0.00 0.02 0.02 67 1008.7
20260503150525 57 249 11.0 20.0 0.00 0.00 0.00 58 1009.9
20260503130957 51 246 6.0 14.0 0.00 0.00 0.00 60 1010.7
20260503110514 48 286 4.0 10.0 0.00 0.00 0.00 61 1010.8
20260503090500 49 231 5.0 11.0 0.00 0.00 0.00 56 1011.4
20260503081454 48 216 4.0 11.0 0.00 0.00 0.00 56 1011.8
20260503080449 48 273 4.0 8.0 0.00 0.00 0.00 58 1011.9
20260503072917 46 240 3.0 7.0 0.00 0.00 0.00 62 1012.1
20260503071444 46 216 2.0 5.0 0.00 0.00 0.00 63 1012.2
20260503070444 45 194 3.0 8.0 0.00 0.00 0.00 64 1012.2
20260503054427 42 260 1.0 4.0 0.00 0.00 0.00 72 1012.9
20260503053427 42 216 1.0 3.0 0.00 0.00 0.00 73 1012.9
20260503052426 42 289 1.0 3.0 0.00 0.00 0.00 74 1013.0
20260503051426 42 212 1.0 3.0 0.00 0.00 0.00 75 1013.0
20260503050427 42 209 1.0 5.0 0.00 0.00 0.00 76 1013.1
20260503045909 41 214 1.0 2.0 0.00 0.00 0.00 77 1013.1
20260503044424 41 207 1.0 3.0 0.00 0.00 0.00 78 1013.2
20260503043422 42 282 1.0 4.0 0.00 0.00 0.00 79 1013.2
20260503042419 42 211 1.0 3.0 0.00 0.00 0.00 77 1013.3
20260503041916 42 199 1.0 3.0 0.00 0.00 0.00 78 1013.4
20260503040417 42 260 1.0 4.0 0.00 0.00 0.00 78 1013.4
20260503035418 42 303 2.0 4.0 0.00 0.00 0.00 77 1013.5
20260503034418 42 188 2.0 5.0 0.00 0.00 0.00 78 1013.6
20260503033418 42 231 2.0 5.0 0.00 0.00 0.00 78 1013.7
20260503032419 42 191 2.0 5.0 0.00 0.00 0.00 78 1013.7
20260503031418 42 227 2.0 6.0 0.00 0.00 0.00 77 1013.8
20260503030426 43 194 3.0 7.0 0.00 0.00 0.00 77 1014.0
20260503025414 43 198 3.0 8.0 0.00 0.00 0.00 77 1014.1
20260503024413 43 240 4.0 8.0 0.00 0.00 0.00 76 1014.2
20260503023416 43 201 3.0 8.0 0.00 0.00 0.00 76 1014.2
20260503022414 43 173 3.0 8.0 0.00 0.00 0.00 75 1014.2
20260503021417 43 222 3.0 8.0 0.00 0.00 0.00 75 1014.2
20260503020414 43 186 3.0 6.0 0.00 0.00 0.00 74 1014.1
20260503015414 44 197 3.0 8.0 0.00 0.00 0.00 73 1014.0
20260503014411 44 184 4.0 9.0 0.00 0.00 0.00 72 1014.0
20260503013411 44 205 3.0 7.0 0.00 0.00 0.00 71 1014.0
20260503012412 44 184 4.0 9.0 0.00 0.00 0.00 70 1014.0
20260503011412 45 190 4.0 7.0 0.00 0.00 0.00 68 1014.0
20260503010412 45 172 3.0 7.0 0.00 0.00 0.00 67 1014.0
20260503005412 46 190 3.0 6.0 0.00 0.00 0.00 66 1014.0
20260503004855 46 224 2.0 6.0 0.00 0.00 0.00 65 1014.0
20260503003859 46 172 3.0 8.0 0.00 0.00 0.00 64 1014.1
20260503002409 47 224 3.0 9.0 0.00 0.00 0.00 62 1014.2
20260503001409 47 180 4.0 8.0 0.00 0.00 0.00 61 1014.2
20260503000410 48 248 4.0 9.0 0.00 0.00 0.00 60 1014.3
20260502235848 48 281 4.0 11.0 0.00 0.00 0.00 59 1014.3
20260502234410 49 174 5.0 10.0 0.00 0.00 0.00 57 1014.5
20260502233852 49 249 5.0 11.0 0.00 0.00 0.00 56 1014.6
20260502232410 49 220 4.0 12.0 0.00 0.00 0.00 56 1014.7
20260502231407 49 155 4.0 10.0 0.00 0.00 0.00 56 1014.7
20260502230839 49 188 4.0 10.0 0.00 0.00 0.00 55 1014.8
20260502225405 50 198 4.0 9.0 0.00 0.00 0.00 54 1014.9
20260502224405 50 166 4.0 10.0 0.00 0.00 0.00 53 1015.1
20260502224329 49 196 3.0 8.0 0.00 0.00 0.00 56 1015.1
20260502222404 49 235 4.0 9.0 0.00 0.00 0.00 56 1015.1
20260502221405 49 165 4.0 9.0 0.00 0.00 0.00 57 1015.2
20260502220405 49 103 4.0 9.0 0.00 0.00 0.00 55 1015.2
20260502215402 50 198 4.0 9.0 0.00 0.00 0.00 55 1015.3
20260502214840 50 134 3.0 8.0 0.00 0.00 0.00 55 1015.4
20260502213359 50 180 4.0 11.0 0.00 0.00 0.00 54 1015.4
20260502212359 50 94 3.0 9.0 0.00 0.00 0.00 53 1015.4
20260502211836 50 219 4.0 8.0 0.00 0.00 0.00 53 1015.5
20260502210400 51 191 3.0 9.0 0.00 0.00 0.00 55 1015.6
20260502205359 50 186 4.0 9.0 0.00 0.00 0.00 53 1015.7
20260502204400 51 110 3.0 7.0 0.00 0.00 0.00 52 1015.8
20260502203359 50 162 4.0 9.0 0.00 0.00 0.00 54 1015.9
20260502202357 50 154 3.0 8.0 0.00 0.00 0.00 53 1016.0
20260502202311 51 151 4.0 10.0 0.00 0.00 0.00 54 1016.1
20260502200406 51 33 4.0 9.0 0.00 0.00 0.00 56 1016.3
20260502195355 51 125 4.0 9.0 0.00 0.00 0.00 53 1016.4
20260502194355 50 141 3.0 9.0 0.00 0.00 0.00 56 1016.6
20260502193827 49 225 2.0 7.0 0.00 0.00 0.00 53 1016.9